COSMOS 1275 DEB, 12713

Orbit data source: Space-Track

COSMOS 1275 DEB, 12713 is space debris in LEO originally from a launch on Thu, 04 Jun 1981 UTC launched from the Plesetsk Missile And Space Complex (PKMTR). Debris objects in space refer to the collection of defunct objects orbiting the Earth. Examples of debris include non-operational satellites, rocket bodies, and fragments generated from explosions, collisions, or faulty payload assembly.

Loading next visibility...
Identifier
12713, 1981-053BH
Orbit
LEO
Country
Flag of CISCIS
Related business
Manufacturer
Unknown
Mission
Spacecraft
Bus & Motor
Unknown
Mass
Unknown
Launch date (UTC)
1981-06-04 (45 years ago)
Launch vehicle
Unknown
Launch site
Plesetsk Missile And Space Complex (PKMTR)
Object type
Payload
Rocket body
Debris
Shape & HBR
Unknown shape, 0.1 m
Radar Cross Section
Small (<0.1 m²)

Expand to show TLE details & history
Last TLE update: 16 hours ago

TLE from 16 hours ago
0 COSMOS 1275 DEB
1 12713U 81053BH  26119.24889428  .00003816  00000-0  14152-2 0  9998
2 12713  82.9462  70.6109 0014263 300.5935  59.3845 14.31987789283982
Epoch: 2026-04-29T05:58Z
TLE epoch observation values (Epoch: 2026-04-29T05:58:24.465Z)
Latitude
-0.00008°
Longitude
123.79638°
Altitude
782.88 km
Speed
7.465 km/s
True Right ascension
04h 42m 26s
True Declination
0° 00' 00"
Sunlit
Object was in daylight at epoch
Visualization orbit readout
Latitude
Unknown
Longitude
Unknown
Altitude
Unknown
Speed
Unknown
Apparent Right ascension
Unknown
Apparent Declination
Unknown
Sunlit
N/A
Visualization observer readout
Local Sidereal Time
05:44:43
Azimuth
Unknown
Elevation
Unknown
Doppler factor
Unknown
Orbital elements
Apogee altitude
792.377 km
Perigee altitude
771.952 km
Semi-major axis
7,160.301 km
Eccentricity
0.00143
Inclination
82.9462°
RAAN
70.6109°
Arg. of periapsis
300.5935°
True anomaly
59.52529°
Mean anomaly
59.3845°
Eccentric anomaly
59.45488°
Mean motion
3.58217 °/min
Orbital period
100.5 mins
BSTAR
0.0014152
Loading maneuver chart data...
Computing Atmospheric mass density...
Loading historical data...
Loading historical data...
Loading historical data...
Loading historical data...
Loading historical data...
Loading historical data...
Loading historical data...

Documentation

Showing up to 5 results
|